Lafayette Regional Airport Lafayette US
ICAO: KLFT
IATA: LFT
Category: Large
Scheduled Services: Yes

Elevation: 42 ft
TransAlt. 18000 ft.

Airport Communications:
APP/DEP:121.1
ATIS:134.05
CLNC DEL:125.55
CTAF:118.5
GND:121.8
DE RIDDER RDO:122.35
TWR:118.5
UNICOM:122.95

KLFT Zoom In..

If you have problems with the map follow the link
https://www.worldairports.se/pages/airport.php?
ICAO=KLFT

Runways:

(A) RW 04L length 4099 ft width 75 ft
---- / hdg 36

(B) RW 04R length 8001 ft width 150 ft
ILS 110.90 / hdg 36

(C) RW 11 length 5401 ft width 148 ft
---- / hdg 107

(D) RW 22L length 8001 ft width 150 ft
ILS 109.50 / hdg 216

(E) RW 22R length 4099 ft width 75 ft
---- / hdg 216

(F) RW 29 length 5401 ft width 148 ft
---- / hdg 287

Location; KLFT
Day. 16 / Time. 11.53 Zulu
* Altimeter: 30.25
* Temperature: 03° c. 37.4°f.
* Wind from: 000° Speed 00 kn.
Dewpoint: 02° c.
Visibility: 10 Statute Miles.
Clouds: Clear (automated report).

KLFT 161153Z 00000KT 10SM CLR 03/02 A3025 RMK AO2 SLP243 T00330022 10056 20028 53005


Wind - Calm.

 
 
jpsmedia.com for Web Design worldairports.se 2018   terms of use